Lincoln, NE

9:49 PM CST on November 19, 2019 (GMT -0600)
Lincoln Municipal

Weather History for KLNK - August, 2019

Change the Weather History Date:

Wednesday, August 28, 2019

  Actual Average Record
Temperature  
Mean Temperature 68 °F 73 °F  
Max Temperature 84 °F 85 °F 103 °F (1984)
Min Temperature 51 °F 61 °F 41 °F (1988)
Degree Days  
Heating Degree Days 0 0  
Month to date heating degree days 0 0  
Since 1 June heating degree days 6 17  
Since 1 July heating degree days 0 1  
Cooling Degree Days 3 9  
Month to date cooling degree days 284 301  
Year to date cooling degree days 1030 1012  
Since 1 June cooling degree days 958 933  
Growing Degree Days 18 (Base 50)    
Moisture  
Dew Point 57 °F    
Average Humidity 72    
Maximum Humidity 100    
Minimum Humidity 43    
Precipitation  
Precipitation 0.00 in 0.12 in 2.93 in (1910)
Month to date precipitation 2.45 3.14  
Year to date precipitation 24.32 21.23  
Snow  
Snow 0.00 in 0.00 in 0.00 in (2006)
Month to date snowfall 0.0 0.0  
Since 1 June snowfall 0.0 0.0  
Since 1 July snowfall 0.0 0.0  
Snow Depth 0.00 in    
Sea Level Pressure  
Sea Level Pressure 30.05 in    
Wind  
Wind Speed 6 mph (SW)    
Max Wind Speed 17 mph    
Max Gust Speed 22 mph    
Visibility 10 miles    
Events      
T = Trace of Precipitation, MM = Missing Value Source: NWS Daily Summary

Daily Weather History Graph

Daily Weather History Graph

Search for Another Location

Airport or City:

Astronomy

Aug. 28, 2019 Rise Set
Actual Time 6:49 AM CDT 8:06 PM CDT
Civil Twilight 6:21 AM CDT 8:34 PM CDT
Nautical Twilight 5:47 AM CDT 9:08 PM CDT
Astronomical Twilight 5:11 AM CDT 9:44 PM CDT
Moon 4:22 AM CDT (8/28) 7:19 PM CDT (8/28)
Length of Visible Light 14h 13m
Length of Day
13h 16m
Waning Crescent, 4% of the Moon is Illuminated
Aug 28
Waning Crescent
Aug 30
New
Sep 5
First Quarter
Sep 13
Full
Sep 21
Last Quarter

Hourly Weather History & Observations

Time (CDT) Temp. Heat Index Dew Point Humidity Pressure Visibility Wind Dir Wind Speed Gust Speed Precip Events Conditions
12:54 AM 60.1 °F - 55.0 °F 83% 30.07 in 10.0 mi West 3.5 mph - N/A   Clear
1:54 AM 55.0 °F - 52.0 °F 89% 30.09 in 10.0 mi Calm Calm - N/A   Clear
2:54 AM 53.1 °F - 51.1 °F 93% 30.08 in 10.0 mi SSW 3.5 mph - N/A   Clear
3:54 AM 55.0 °F - 53.1 °F 93% 30.09 in 10.0 mi South 3.5 mph - N/A   Clear
4:54 AM 54.0 °F - 52.0 °F 93% 30.09 in 10.0 mi Calm Calm - N/A   Clear
5:54 AM 52.0 °F - 51.1 °F 97% 30.10 in 10.0 mi Calm Calm - N/A   Clear
6:54 AM 54.0 °F - 50.0 °F 86% 30.11 in 8.0 mi Calm Calm - N/A   Clear
7:19 AM 52.0 °F - 51.1 °F 97% 30.13 in 1.8 mi South 5.8 mph - N/A   Clear
7:54 AM 55.9 °F - 54.0 °F 93% 30.12 in 10.0 mi Calm Calm - N/A   Clear
8:54 AM 62.1 °F - 55.9 °F 80% 30.12 in 10.0 mi West 3.5 mph - N/A   Clear
9:54 AM 66.9 °F - 57.9 °F 73% 30.10 in 10.0 mi SW 3.5 mph - N/A   Clear
10:54 AM 72.0 °F - 57.9 °F 61% 30.10 in 10.0 mi WSW 5.8 mph - N/A   Clear
11:54 AM 75.9 °F - 59.0 °F 56% 30.08 in 10.0 mi WSW 10.4 mph - N/A   Clear
12:54 PM 79.0 °F - 59.0 °F 50% 30.07 in 10.0 mi West 13.8 mph - N/A   Clear
1:54 PM 81.0 °F 81.1 °F 57.9 °F 45% 30.05 in 10.0 mi WSW 9.2 mph 21.9 mph N/A   Clear
2:54 PM 82.0 °F 82.0 °F 57.9 °F 44% 30.04 in 10.0 mi SW 15.0 mph 19.6 mph N/A   Clear
3:54 PM 82.0 °F 82.1 °F 59.0 °F 45% 30.01 in 10.0 mi WSW 8.1 mph - N/A   Mostly Cloudy
4:54 PM 82.0 °F 82.7 °F 61.0 °F 49% 29.99 in 10.0 mi SSW 9.2 mph - N/A   Partly Cloudy
5:54 PM 82.0 °F 82.7 °F 61.0 °F 49% 29.97 in 10.0 mi SSW 10.4 mph - N/A   Mostly Cloudy
6:54 PM 80.1 °F 81.2 °F 62.1 °F 54% 29.96 in 10.0 mi South 5.8 mph - N/A   Overcast
7:54 PM 77.0 °F - 63.0 °F 62% 29.95 in 10.0 mi South 5.8 mph - N/A   Overcast
8:54 PM 73.0 °F - 64.0 °F 73% 29.95 in 10.0 mi South 5.8 mph - N/A   Overcast
9:54 PM 72.0 °F - 63.0 °F 73% 29.94 in 10.0 mi South 11.5 mph - N/A   Clear
10:54 PM 71.1 °F - 61.0 °F 70% 29.94 in 10.0 mi South 9.2 mph - N/A   Clear